{"data":{"norad_id":69551,"epoch":"2026-09-20T00:23:23.081568Z","epoch_age_seconds":63480,"freshness":"FRESH","line1":"1 69551U 26135F   26263.01623937  .00020168  00000+0  62484-3 0  9996","line2":"2 69551  97.2853 290.6723 0000564 126.6632 233.4662 15.33472747 14927","mean_motion":15.33472747,"eccentricity":5.64e-5,"inclination_deg":97.2853,"raan_deg":290.6723,"arg_perigee_deg":126.6632,"mean_anomaly_deg":233.4662,"bstar":0.00062484,"rev_number":1492,"period_min":93.904505496895,"perigee_km":465.07464126685,"apogee_km":465.8465990784,"semimajor_km":6843.5976201726,"source":"CELESTRAK","updated_at":"2026-09-20T09:00:44.242619Z"}}